QPF
0.00 0.00 0.00 0.01 0.01 0.01 0.01 0.02 0.02 0.02 0.02 0.01 0.01 0.02 0.02 0.01 0.01 0.01 0.01 0.01 0.01 0.02 0.02 0.02 0.03 0.03 0.03 0.04 0.04 0.04 0.04 0.02 0.01 0.02 0.03 0.02 0.01 0.02 0.02 0.01 0.01 0.01 0.02
0.00 0.00 0.00 0.01 0.00 0.01 0.01 0.02 0.02 0.02 0.02 0.01 0.01 0.02 0.02 0.02 0.02 0.01 0.01 0.02 0.02 0.02 0.02 0.02 0.02 0.03 0.03 0.04 0.05 0.04 0.03 0.02 0.01 0.02 0.02 0.01 0.02 0.02 0.01 0.01 0.01 0.01 0.02
0.00 0.00 0.00 0.00 0.00 0.01 0.01 0.02 0.02 0.01 0.02 0.02 0.02 0.02 0.02 0.02 0.02 0.02 0.02 0.03 0.03 0.02 0.01 0.01 0.02 0.03 0.04 0.04 0.06 0.06 0.04 0.03 0.02 0.01 0.01 0.02 0.02 0.03 0.02 0.01 0.01 0.02 0.03
0.00 0.00 0.00 0.00 0.01 0.01 0.01 0.01 0.02 0.01 0.01 0.02 0.03 0.02 0.02 0.01 0.02 0.03 0.02 0.02 0.02 0.01 0.01 0.01 0.01 0.02 0.03 0.04 0.04 0.04 0.05 0.05 0.03 0.02 0.01 0.02 0.02 0.02 0.02 0.02 0.01 0.01 0.02
0.00 0.00 0.00 0.00 0.00 0.01 0.01 0.02 0.02 0.01 0.02 0.03 0.04 0.03 0.03 0.02 0.02 0.02 0.02 0.02 0.02 0.01 0.01 0.00 0.01 0.01 0.02 0.03 0.03 0.02 0.02 0.03 0.03 0.02 0.01 0.01 0.02 0.02 0.02 0.01 0.01 0.02 0.03
0.00 0.00 0.00 0.00 0.00 0.01 0.01 0.01 0.01 0.01 0.01 0.02 0.02 0.03 0.03 0.02 0.01 0.01 0.02 0.02 0.02 0.01 0.01 0.01 0.01 0.02 0.02 0.03 0.03 0.03 0.02 0.02 0.01 0.01 0.02 0.02 0.02 0.01 0.01 0.02 0.02 0.02 0.03
0.00 0.00 0.00 0.00 0.00 0.01 0.01 0.01 0.01 0.02 0.02 0.02 0.02 0.01 0.01 0.02 0.01 0.01 0.01 0.01 0.02 0.01 0.02 0.01 0.01 0.02 0.03 0.03 0.03 0.02 0.02 0.02 0.01 0.02 0.02 0.04 0.03 0.02 0.02 0.02 0.03 0.02 0.02
0.00 0.00 0.00 0.00 0.00 0.01 0.01 0.01 0.01 0.01 0.02 0.02 0.02 0.01 0.01 0.01 0.02 0.01 0.01 0.00 0.01 0.01 0.02 0.01 0.01 0.02 0.03 0.03 0.03 0.02 0.02 0.02 0.01 0.02 0.03 0.04 0.03 0.03 0.03 0.02 0.03 0.03 0.03
0.00 0.00 0.01 0.00 0.00 0.01 0.01 0.01 0.01 0.01 0.01 0.02 0.02 0.01 0.01 0.01 0.01 0.01 0.01 0.00 0.01 0.01 0.02 0.02 0.01 0.02 0.02 0.03 0.03 0.02 0.02 0.02 0.01 0.02 0.02 0.03 0.02 0.02 0.02 0.02 0.03 0.04 0.03
0.00 0.00 0.00 0.01 0.01 0.01 0.01 0.01 0.01 0.01 0.01 0.01 0.01 0.01 0.01 0.01 0.01 0.00 0.00 0.00 0.00 0.01 0.01 0.01 0.01 0.01 0.02 0.02 0.03 0.02 0.02 0.02 0.02 0.02 0.02 0.02 0.02 0.03 0.03 0.02 0.03 0.04 0.03
0.00 0.00 0.00 0.01 0.01 0.01 0.01 0.01 0.01 0.01 0.01 0.01 0.01 0.00 0.00 0.01 0.02 0.01 0.00 0.00 0.00 0.00 0.01 0.01 0.01 0.01 0.02 0.02 0.03 0.03 0.03 0.03 0.03 0.03 0.02 0.01 0.02 0.02 0.03 0.02 0.03 0.04 0.03
0.00 0.00 0.00 0.00 0.01 0.02 0.02 0.02 0.02 0.02 0.01 0.01 0.01 0.01 0.01 0.01 0.02 0.02 0.01 0.00 0.00 0.00 0.01 0.01 0.01 0.02 0.03 0.02 0.02 0.03 0.03 0.03 0.04 0.03 0.02 0.01 0.02 0.02 0.03 0.03 0.03 0.04 0.04
0.00 0.00 0.00 0.00 0.01 0.01 0.02 0.02 0.02 0.02 0.03 0.03 0.03 0.02 0.02 0.03 0.02 0.01 0.01 0.00 0.00 0.00 0.00 0.01 0.02 0.02 0.02 0.02 0.02 0.02 0.03 0.04 0.04 0.04 0.02 0.01 0.01 0.02 0.03 0.03 0.04 0.04 0.05
0.00 0.00 0.00 0.00 0.01 0.01 0.01 0.01 0.02 0.02 0.02 0.02 0.03 0.03 0.04 0.04 0.02 0.02 0.01 0.00 0.00 0.00 0.00 0.01 0.02 0.02 0.02 0.01 0.01 0.02 0.03 0.04 0.04 0.04 0.04 0.03 0.01 0.01 0.03 0.03 0.04 0.05 0.05
0.00 0.00 0.00 0.00 0.00 0.00 0.01 0.01 0.01 0.01 0.01 0.02 0.02 0.03 0.04 0.04 0.03 0.02 0.02 0.02 0.01 0.00 0.00 0.01 0.02 0.02 0.02 0.01 0.02 0.04 0.05 0.06 0.06 0.05 0.05 0.05 0.04 0.01 0.02 0.03 0.03 0.04 0.05
0.00 0.00 0.00 0.00 0.00 0.00 0.00 0.01 0.01 0.01 0.01 0.02 0.02 0.01 0.02 0.02 0.03 0.02 0.02 0.02 0.01 0.00 0.00 0.00 0.01 0.02 0.02 0.02 0.02 0.03 0.04 0.06 0.06 0.05 0.04 0.04 0.04 0.04 0.03 0.03 0.03 0.03 0.04
0.00 0.00 0.00 0.00 0.00 0.00 0.00 0.00 0.00 0.00 0.01 0.01 0.01 0.01 0.01 0.01 0.01 0.02 0.02 0.02 0.01 0.01 0.01 0.01 0.01 0.01 0.02 0.02 0.02 0.02 0.02 0.03 0.04 0.05 0.05 0.04 0.04 0.04 0.04 0.03 0.04 0.05 0.05
0.00 0.00 0.00 0.00 0.00 0.00 0.00 0.00 0.00 0.00 0.00 0.01 0.01 0.01 0.01 0.01 0.01 0.01 0.02 0.02 0.02 0.02 0.02 0.01 0.01 0.02 0.02 0.02 0.03 0.02 0.02 0.03 0.04 0.04 0.05 0.06 0.05 0.04 0.05 0.04 0.04 0.06 0.06
0.00 0.00 0.00 0.00 0.00 0.00 0.00 0.00 0.00 0.00 0.01 0.01 0.01 0.01 0.01 0.01 0.01 0.01 0.02 0.02 0.03 0.03 0.02 0.02 0.01 0.02 0.03 0.02 0.03 0.03 0.02 0.03 0.04 0.04 0.04 0.05 0.06 0.05 0.04 0.05 0.05 0.06 0.07
0.00 0.00 0.00 0.00 0.00 0.00 0.00 0.00 0.00 0.01 0.01 0.01 0.01 0.01 0.01 0.01 0.01 0.01 0.02 0.02 0.03 0.03 0.02 0.01 0.01 0.01 0.01 0.02 0.03 0.03 0.03 0.03 0.03 0.04 0.05 0.05 0.06 0.06 0.06 0.06 0.05 0.06 0.08
0.00 0.00 0.00 0.00 0.00 0.00 0.00 0.00 0.00 0.00 0.00 0.01 0.01 0.01 0.01 0.01 0.01 0.01 0.02 0.02 0.03 0.04 0.04 0.03 0.02 0.02 0.02 0.02 0.03 0.03 0.03 0.03 0.03 0.03 0.04 0.05 0.06 0.06 0.06 0.06 0.06 0.06 0.08
0.00 0.00 0.00 0.00 0.00 0.00 0.00 0.00 0.00 0.00 0.00 0.01 0.01 0.01 0.01 0.01 0.01 0.01 0.01 0.02 0.02 0.03 0.03 0.03 0.02 0.02 0.03 0.02 0.02 0.03 0.04 0.04 0.03 0.03 0.03 0.04 0.06 0.08 0.08 0.07 0.06 0.06 0.08
0.00 0.00 0.00 0.00 0.00 0.00 0.00 0.00 0.00 0.00 0.01 0.01 0.02 0.02 0.02 0.01 0.01 0.01 0.01 0.01 0.01 0.01 0.01 0.01 0.02 0.02 0.02 0.02 0.02 0.02 0.03 0.03 0.03 0.03 0.03 0.04 0.05 0.08 0.08 0.09 0.09 0.07 0.07
0.00 0.00 0.00 0.00 0.00 0.00 0.00 0.00 0.00 0.01 0.01 0.01 0.02 0.02 0.02 0.02 0.01 0.01 0.01 0.01 0.01 0.01 0.01 0.01 0.01 0.02 0.02 0.02 0.02 0.02 0.02 0.03 0.03 0.03 0.03 0.03 0.04 0.06 0.08 0.07 0.08 0.08 0.08
0.00 0.00 0.00 0.00 0.00 0.00 0.01 0.02 0.01 0.01 0.02 0.02 0.01 0.02 0.02 0.02 0.02 0.01 0.01 0.01 0.01 0.01 0.01 0.01 0.02 0.02 0.02 0.02 0.02 0.02 0.03 0.03 0.03 0.03 0.03 0.04 0.05 0.05 0.07 0.07 0.06 0.05 0.06
0.00 0.00 0.00 0.00 0.00 0.00 0.02 0.04 0.01 0.02 0.01 0.01 0.01 0.01 0.01 0.01 0.01 0.01 0.01 0.01 0.01 0.01 0.02 0.01 0.02 0.02 0.02 0.02 0.02 0.03 0.03 0.04 0.03 0.03 0.03 0.03 0.05 0.06 0.07 0.08 0.08 0.06 0.05
MSLP
1011.07 1011.16 1011.20 1011.25 1011.37 1011.56 1011.81 1012.09 1012.35 1012.57 1012.73 1012.84 1012.93 1013.02 1013.14 1013.28 1013.44 1013.61 1013.75 1013.85 1013.90 1013.91 1013.89 1013.87 1013.85 1013.85 1013.86 1013.84 1013.79 1013.68 1013.50 1013.27 1013.01 1012.75 1012.52 1012.34 1012.20 1012.11 1012.04 1011.96 1011.87 1011.76 1011.64
1011.05 1011.20 1011.32 1011.46 1011.65 1011.88 1012.14 1012.40 1012.63 1012.82 1012.96 1013.07 1013.17 1013.30 1013.45 1013.64 1013.84 1014.03 1014.19 1014.29 1014.35 1014.37 1014.36 1014.36 1014.36 1014.36 1014.35 1014.30 1014.20 1014.03 1013.80 1013.52 1013.23 1012.96 1012.74 1012.56 1012.44 1012.35 1012.26 1012.15 1012.01 1011.84 1011.65
1011.03 1011.25 1011.44 1011.67 1011.93 1012.21 1012.50 1012.75 1012.97 1013.13 1013.25 1013.36 1013.48 1013.63 1013.82 1014.04 1014.26 1014.46 1014.61 1014.71 1014.76 1014.78 1014.78 1014.78 1014.79 1014.79 1014.76 1014.69 1014.55 1014.33 1014.06 1013.75 1013.45 1013.18 1012.97 1012.82 1012.71 1012.63 1012.53 1012.40 1012.23 1012.01 1011.76
1011.03 1011.29 1011.57 1011.88 1012.22 1012.56 1012.88 1013.15 1013.36 1013.50 1013.62 1013.73 1013.87 1014.04 1014.25 1014.48 1014.71 1014.90 1015.03 1015.11 1015.14 1015.14 1015.14 1015.14 1015.14 1015.14 1015.10 1015.01 1014.84 1014.60 1014.30 1013.98 1013.68 1013.42 1013.23 1013.10 1013.01 1012.94 1012.84 1012.70 1012.50 1012.24 1011.96
1011.06 1011.37 1011.72 1012.12 1012.54 1012.94 1013.30 1013.58 1013.79 1013.93 1014.05 1014.17 1014.32 1014.51 1014.74 1014.97 1015.19 1015.36 1015.46 1015.50 1015.50 1015.47 1015.45 1015.44 1015.44 1015.42 1015.37 1015.27 1015.08 1014.83 1014.53 1014.21 1013.92 1013.68 1013.51 1013.40 1013.33 1013.26 1013.16 1013.01 1012.79 1012.52 1012.22
1011.13 1011.49 1011.91 1012.39 1012.88 1013.34 1013.74 1014.04 1014.25 1014.40 1014.51 1014.64 1014.81 1015.02 1015.25 1015.49 1015.69 1015.83 1015.90 1015.90 1015.85 1015.79 1015.74 1015.70 1015.68 1015.66 1015.60 1015.48 1015.30 1015.05 1014.75 1014.45 1014.18 1013.96 1013.81 1013.71 1013.64 1013.56 1013.45 1013.29 1013.06 1012.79 1012.49
1011.26 1011.66 1012.15 1012.69 1013.25 1013.76 1014.18 1014.49 1014.70 1014.85 1014.97 1015.11 1015.29 1015.52 1015.77 1016.01 1016.19 1016.31 1016.34 1016.30 1016.21 1016.10 1016.01 1015.95 1015.91 1015.87 1015.80 1015.68 1015.50 1015.26 1014.99 1014.71 1014.46 1014.25 1014.10 1014.00 1013.91 1013.81 1013.68 1013.50 1013.26 1012.99 1012.69
1011.42 1011.87 1012.42 1013.03 1013.63 1014.16 1014.60 1014.91 1015.12 1015.27 1015.39 1015.55 1015.75 1015.99 1016.25 1016.49 1016.67 1016.77 1016.77 1016.69 1016.56 1016.42 1016.29 1016.19 1016.12 1016.06 1015.98 1015.87 1015.69 1015.47 1015.22 1014.96 1014.73 1014.53 1014.37 1014.25 1014.12 1013.98 1013.81 1013.59 1013.34 1013.06 1012.78
1011.63 1012.13 1012.73 1013.37 1014.00 1014.54 1014.97 1015.28 1015.48 1015.62 1015.75 1015.92 1016.13 1016.40 1016.67 1016.92 1017.09 1017.18 1017.16 1017.05 1016.90 1016.72 1016.57 1016.44 1016.34 1016.26 1016.17 1016.05 1015.88 1015.67 1015.44 1015.20 1014.97 1014.77 1014.59 1014.43 1014.26 1014.06 1013.83 1013.57 1013.28 1012.99 1012.71
1011.85 1012.40 1013.04 1013.71 1014.34 1014.88 1015.29 1015.58 1015.76 1015.90 1016.04 1016.22 1016.45 1016.73 1017.01 1017.27 1017.44 1017.52 1017.49 1017.37 1017.20 1017.01 1016.83 1016.69 1016.57 1016.46 1016.35 1016.22 1016.05 1015.85 1015.62 1015.39 1015.16 1014.95 1014.74 1014.53 1014.31 1014.05 1013.76 1013.44 1013.12 1012.81 1012.52
1012.07 1012.67 1013.33 1014.01 1014.63 1015.15 1015.53 1015.80 1015.97 1016.11 1016.26 1016.45 1016.70 1016.99 1017.28 1017.54 1017.72 1017.79 1017.76 1017.64 1017.47 1017.27 1017.09 1016.93 1016.79 1016.67 1016.54 1016.38 1016.20 1015.99 1015.75 1015.51 1015.28 1015.04 1014.81 1014.56 1014.28 1013.97 1013.62 1013.25 1012.89 1012.54 1012.24
1012.25 1012.90 1013.58 1014.25 1014.85 1015.34 1015.70 1015.95 1016.12 1016.26 1016.42 1016.63 1016.90 1017.19 1017.49 1017.75 1017.92 1018.00 1017.97 1017.86 1017.70 1017.51 1017.33 1017.16 1017.02 1016.87 1016.72 1016.53 1016.32 1016.08 1015.82 1015.56 1015.30 1015.05 1014.78 1014.51 1014.19 1013.84 1013.46 1013.06 1012.65 1012.28 1011.95
1012.38 1013.05 1013.75 1014.40 1014.98 1015.44 1015.78 1016.03 1016.21 1016.38 1016.56 1016.79 1017.07 1017.37 1017.67 1017.91 1018.08 1018.16 1018.13 1018.04 1017.89 1017.73 1017.56 1017.40 1017.25 1017.08 1016.89 1016.67 1016.41 1016.13 1015.83 1015.53 1015.24 1014.96 1014.68 1014.39 1014.07 1013.71 1013.32 1012.89 1012.47 1012.06 1011.70
1012.41 1013.12 1013.81 1014.45 1015.00 1015.45 1015.79 1016.05 1016.26 1016.47 1016.69 1016.95 1017.24 1017.55 1017.83 1018.06 1018.22 1018.28 1018.27 1018.19 1018.07 1017.93 1017.78 1017.64 1017.48 1017.30 1017.07 1016.80 1016.49 1016.14 1015.78 1015.43 1015.11 1014.80 1014.52 1014.23 1013.92 1013.58 1013.21 1012.79 1012.36 1011.94 1011.53
1012.35 1013.07 1013.76 1014.38 1014.92 1015.37 1015.73 1016.03 1016.29 1016.55 1016.83 1017.12 1017.43 1017.73 1018.00 1018.21 1018.35 1018.41 1018.39 1018.33 1018.24 1018.13 1018.01 1017.88 1017.73 1017.52 1017.26 1016.93 1016.55 1016.13 1015.71 1015.30 1014.92 1014.60 1014.31 1014.04 1013.76 1013.47 1013.13 1012.75 1012.33 1011.89 1011.44
1012.18 1012.90 1013.58 1014.20 1014.74 1015.21 1015.62 1015.98 1016.31 1016.64 1016.98 1017.32 1017.65 1017.95 1018.20 1018.38 1018.50 1018.54 1018.53 1018.48 1018.41 1018.34 1018.25 1018.14 1017.98 1017.76 1017.46 1017.08 1016.63 1016.14 1015.64 1015.16 1014.73 1014.37 1014.08 1013.83 1013.59 1013.35 1013.06 1012.72 1012.33 1011.87 1011.39
1011.92 1012.63 1013.31 1013.93 1014.49 1015.00 1015.47 1015.91 1016.33 1016.74 1017.14 1017.53 1017.88 1018.18 1018.41 1018.57 1018.66 1018.69 1018.68 1018.64 1018.60 1018.55 1018.49 1018.40 1018.25 1018.02 1017.69 1017.26 1016.75 1016.19 1015.61 1015.07 1014.58 1014.18 1013.87 1013.62 1013.41 1013.21 1012.97 1012.67 1012.29 1011.83 1011.30
1011.57 1012.29 1012.97 1013.60 1014.20 1014.77 1015.31 1015.83 1016.35 1016.84 1017.31 1017.74 1018.11 1018.41 1018.63 1018.76 1018.83 1018.85 1018.84 1018.81 1018.79 1018.77 1018.73 1018.67 1018.53 1018.30 1017.95 1017.50 1016.94 1016.33 1015.69 1015.07 1014.52 1014.07 1013.71 1013.44 1013.23 1013.04 1012.82 1012.54 1012.17 1011.70 1011.13
1011.18 1011.90 1012.59 1013.25 1013.89 1014.52 1015.14 1015.76 1016.36 1016.93 1017.46 1017.93 1018.32 1018.62 1018.83 1018.95 1019.00 1019.01 1019.00 1018.99 1018.98 1018.99 1018.98 1018.93 1018.82 1018.60 1018.26 1017.80 1017.23 1016.57 1015.88 1015.21 1014.59 1014.06 1013.64 1013.31 1013.06 1012.83 1012.60 1012.30 1011.92 1011.44 1010.84
1010.75 1011.49 1012.21 1012.90 1013.59 1014.28 1014.98 1015.67 1016.35 1016.99 1017.58 1018.08 1018.48 1018.78 1018.98 1019.10 1019.15 1019.16 1019.15 1019.15 1019.17 1019.19 1019.21 1019.19 1019.10 1018.92 1018.61 1018.16 1017.60 1016.94 1016.22 1015.50 1014.81 1014.20 1013.68 1013.26 1012.91 1012.61 1012.31 1011.97 1011.55 1011.03 1010.40
1010.30 1011.07 1011.81 1012.55 1013.29 1014.04 1014.81 1015.57 1016.31 1017.00 1017.62 1018.14 1018.56 1018.87 1019.07 1019.19 1019.25 1019.27 1019.28 1019.30 1019.34 1019.38 1019.42 1019.43 1019.38 1019.24 1018.97 1018.58 1018.05 1017.41 1016.69 1015.94 1015.19 1014.48 1013.85 1013.30 1012.82 1012.40 1011.99 1011.56 1011.08 1010.52 1009.85
1009.81 1010.62 1011.41 1012.19 1012.98 1013.79 1014.61 1015.42 1016.20 1016.93 1017.57 1018.11 1018.54 1018.86 1019.08 1019.22 1019.30 1019.34 1019.38 1019.42 1019.48 1019.54 1019.61 1019.65 1019.64 1019.54 1019.34 1019.00 1018.54 1017.94 1017.25 1016.48 1015.68 1014.88 1014.13 1013.43 1012.80 1012.22 1011.67 1011.12 1010.55 1009.93 1009.23
1009.27 1010.14 1010.97 1011.80 1012.64 1013.50 1014.35 1015.20 1016.00 1016.75 1017.40 1017.96 1018.40 1018.74 1018.99 1019.16 1019.28 1019.36 1019.43 1019.50 1019.58 1019.67 1019.75 1019.82 1019.84 1019.80 1019.66 1019.40 1019.00 1018.47 1017.82 1017.06 1016.23 1015.36 1014.48 1013.64 1012.84 1012.09 1011.38 1010.69 1010.01 1009.30 1008.56
1008.67 1009.59 1010.48 1011.35 1012.24 1013.13 1014.01 1014.88 1015.70 1016.45 1017.12 1017.68 1018.15 1018.52 1018.80 1019.02 1019.19 1019.33 1019.44 1019.54 1019.65 1019.75 1019.84 1019.92 1019.97 1019.97 1019.88 1019.69 1019.37 1018.92 1018.32 1017.59 1016.74 1015.82 1014.85 1013.88 1012.92 1012.00 1011.12 1010.29 1009.48 1008.67 1007.85
1007.99 1008.97 1009.91 1010.83 1011.75 1012.67 1013.58 1014.46 1015.29 1016.05 1016.72 1017.30 1017.79 1018.20 1018.53 1018.81 1019.05 1019.24 1019.40 1019.54 1019.67 1019.78 1019.87 1019.95 1020.00 1020.02 1019.97 1019.84 1019.59 1019.21 1018.67 1017.98 1017.16 1016.20 1015.17 1014.09 1013.01 1011.94 1010.91 1009.92 1008.97 1008.05 1007.13
1007.27 1008.29 1009.27 1010.23 1011.19 1012.13 1013.06 1013.95 1014.79 1015.55 1016.23 1016.83 1017.36 1017.81 1018.21 1018.55 1018.85 1019.11 1019.33 1019.51 1019.64 1019.75 1019.83 1019.89 1019.93 1019.94 1019.91 1019.81 1019.61 1019.29 1018.82 1018.19 1017.39 1016.44 1015.38 1014.24 1013.06 1011.87 1010.70 1009.57 1008.47 1007.40 1006.35
Thickness
5755 5755 5754 5754 5754 5754 5754 5754 5754 5753 5753 5753 5752 5752 5752 5751 5751 5751 5750 5750 5750 5749 5749 5749 5749 5749 5748 5748 5747 5746 5746 5745 5744 5743 5742 5742 5741 5740 5738 5737 5736 5735 5734
5756 5753 5751 5750 5750 5750 5750 5750 5749 5749 5748 5748 5748 5748 5748 5747 5747 5747 5746 5746 5746 5745 5745 5745 5745 5745 5745 5744 5743 5743 5742 5741 5741 5740 5739 5739 5738 5737 5735 5734 5733 5732 5731
5753 5749 5746 5746 5746 5746 5746 5745 5745 5744 5744 5743 5743 5743 5743 5743 5742 5742 5742 5742 5742 5741 5741 5741 5741 5740 5740 5740 5739 5739 5738 5738 5737 5737 5736 5736 5735 5734 5732 5731 5730 5729 5728
5748 5744 5742 5741 5741 5741 5741 5740 5740 5739 5739 5739 5738 5738 5738 5738 5738 5737 5737 5737 5737 5737 5737 5736 5736 5736 5736 5735 5735 5734 5734 5734 5733 5733 5733 5733 5732 5730 5729 5728 5727 5726 5725
5743 5740 5737 5736 5736 5736 5735 5735 5735 5734 5734 5733 5733 5733 5733 5732 5732 5732 5732 5732 5732 5732 5732 5731 5731 5731 5731 5731 5730 5730 5730 5730 5729 5730 5730 5729 5728 5727 5725 5724 5723 5722 5721
5737 5735 5732 5731 5731 5730 5730 5730 5729 5729 5729 5728 5728 5728 5727 5727 5727 5727 5727 5727 5727 5727 5726 5726 5726 5726 5726 5726 5725 5725 5725 5725 5725 5725 5725 5725 5724 5723 5721 5720 5718 5717 5716
5732 5729 5727 5726 5725 5725 5725 5724 5724 5723 5723 5723 5723 5722 5722 5722 5722 5722 5722 5722 5721 5721 5721 5721 5721 5721 5720 5720 5720 5720 5720 5720 5721 5721 5721 5720 5719 5718 5717 5716 5714 5713 5712
5727 5725 5722 5721 5720 5720 5719 5719 5718 5718 5718 5717 5717 5717 5717 5716 5716 5716 5716 5716 5716 5716 5716 5715 5715 5716 5715 5715 5715 5715 5715 5715 5715 5716 5715 5714 5714 5714 5713 5711 5709 5708 5707
5722 5720 5717 5716 5715 5715 5714 5713 5713 5713 5712 5712 5712 5711 5711 5711 5711 5711 5710 5710 5710 5710 5710 5709 5709 5710 5709 5709 5709 5709 5709 5709 5710 5710 5709 5709 5709 5708 5708 5706 5705 5704 5703
5715 5714 5712 5711 5710 5709 5708 5708 5708 5707 5707 5707 5706 5706 5706 5706 5705 5705 5704 5704 5704 5704 5704 5703 5703 5703 5703 5703 5703 5703 5703 5704 5704 5704 5704 5704 5704 5703 5702 5701 5700 5699 5698
5708 5708 5707 5706 5705 5704 5703 5703 5702 5702 5701 5701 5701 5701 5700 5700 5699 5699 5698 5698 5698 5697 5697 5697 5697 5697 5697 5697 5697 5697 5697 5697 5698 5698 5698 5698 5698 5698 5697 5696 5695 5694 5693
5699 5701 5701 5701 5700 5699 5698 5698 5697 5697 5696 5696 5696 5695 5694 5694 5693 5693 5692 5691 5691 5690 5690 5690 5689 5690 5689 5689 5689 5690 5690 5691 5692 5692 5692 5692 5692 5692 5691 5690 5689 5688 5688
5695 5695 5695 5695 5695 5694 5693 5693 5692 5692 5691 5691 5690 5690 5689 5688 5687 5686 5685 5684 5683 5683 5682 5682 5681 5681 5681 5682 5682 5682 5683 5684 5685 5686 5686 5686 5686 5685 5685 5684 5684 5683 5682
5690 5689 5689 5689 5688 5688 5687 5687 5687 5686 5686 5685 5685 5684 5682 5681 5680 5679 5678 5677 5676 5675 5675 5674 5674 5674 5674 5674 5675 5675 5675 5676 5678 5678 5678 5678 5679 5678 5678 5678 5677 5677 5676
5684 5684 5683 5683 5682 5682 5681 5681 5681 5680 5680 5679 5678 5677 5676 5674 5673 5671 5670 5669 5668 5667 5667 5666 5666 5666 5666 5666 5667 5667 5667 5668 5669 5671 5671 5671 5671 5671 5671 5670 5670 5670 5669
5679 5678 5678 5677 5677 5676 5675 5675 5675 5674 5674 5673 5672 5671 5670 5668 5666 5664 5662 5661 5660 5659 5659 5658 5657 5657 5657 5657 5658 5658 5659 5660 5661 5662 5663 5663 5663 5663 5663 5663 5663 5662 5662
5674 5674 5673 5672 5671 5670 5669 5669 5669 5668 5667 5666 5665 5664 5663 5661 5659 5657 5655 5653 5652 5651 5650 5649 5649 5648 5648 5648 5648 5648 5649 5650 5651 5653 5653 5654 5655 5655 5655 5655 5655 5654 5654
5670 5668 5667 5667 5665 5664 5663 5662 5662 5661 5661 5660 5659 5657 5656 5654 5652 5649 5647 5645 5644 5642 5641 5640 5639 5638 5637 5637 5637 5638 5639 5641 5642 5643 5644 5645 5645 5646 5646 5646 5646 5646 5646
5665 5663 5661 5660 5658 5657 5657 5656 5655 5655 5654 5653 5652 5650 5648 5646 5644 5642 5640 5637 5635 5634 5632 5630 5629 5627 5626 5626 5627 5628 5629 5630 5632 5634 5634 5635 5635 5637 5637 5637 5637 5636 5636
5659 5657 5655 5654 5652 5651 5650 5649 5648 5647 5647 5646 5645 5643 5641 5639 5637 5635 5632 5629 5627 5625 5622 5621 5619 5617 5616 5616 5617 5618 5620 5621 5622 5623 5624 5625 5625 5627 5627 5627 5626 5626 5627
5652 5650 5649 5647 5646 5645 5643 5641 5640 5639 5639 5638 5637 5636 5634 5632 5630 5627 5624 5621 5619 5616 5614 5612 5610 5608 5606 5606 5605 5606 5609 5611 5612 5613 5613 5614 5615 5616 5616 5616 5615 5615 5616
5646 5644 5643 5641 5640 5639 5637 5635 5634 5632 5632 5631 5630 5629 5627 5625 5623 5620 5617 5614 5611 5608 5606 5604 5602 5599 5597 5596 5593 5592 5594 5597 5600 5602 5602 5602 5604 5604 5605 5605 5604 5605 5605
5640 5639 5638 5636 5635 5633 5631 5629 5627 5625 5623 5622 5621 5620 5620 5618 5615 5613 5610 5608 5605 5602 5599 5597 5594 5591 5588 5586 5584 5580 5579 5581 5584 5589 5591 5591 5592 5591 5592 5593 5594 5594 5594
5634 5633 5631 5630 5628 5627 5625 5623 5620 5617 5615 5614 5614 5613 5612 5611 5609 5606 5604 5601 5599 5596 5593 5590 5588 5584 5580 5577 5575 5573 5571 5570 5567 5571 5576 5578 5579 5580 5580 5582 5582 5582 5582
5629 5626 5625 5623 5622 5620 5619 5617 5614 5611 5609 5608 5607 5606 5604 5603 5601 5599 5597 5595 5592 5589 5587 5584 5580 5577 5573 5570 5567 5564 5562 5559 5558 5556 5560 5565 5567 5568 5569 5569 5569 5569 5570
5621 5619 5618 5616 5614 5613 5611 5610 5607 5604 5602 5601 5599 5598 5597 5595 5593 5592 5590 5587 5585 5582 5579 5577 5574 5570 5566 5563 5560 5556 5553 5550 5549 5546 5548 5551 5554 5556 5557 5557 5557 5558 5559